Location: Olmillo
(41.3237°N, 3.6886°W)
Time: 00:07:18
(UTC+00:00)

Daily predictions for brighter satellites

Satellite Brightness Start Highest point End
(mag) Time Altitude Azimuth Time Altitude Azimuth Time Altitude Azimuth
Cosmos 1634 Rocket 4.5 00:02:33 10° N 00:08:37 50° ENE 00:10:17 40° ESE
SJ 16-02 1.7 00:15:31 56° ENE 00:15:31 56° ENE 00:19:10 10° NNE
PSLV R/B 4.0 00:11:44 10° N 00:15:55 55° WNW 00:15:55 55° WNW
CZ-2C R/B 4.4 00:14:32 18° E 00:16:51 24° ENE 00:21:00 10° NNE
Cosmos 371 Rocket 4.3 00:19:30 34° E 00:19:30 34° E 00:23:31 10° NE
USA 307 3.9 00:20:42 37° NW 00:20:49 37° NNW 00:24:31 10° NE
Cosmos 1300 Rocket 3.7 00:16:25 10° N 00:20:33 69° NE 00:20:33 69° NE
PSLV R/B 4.3 00:18:19 10° N 00:21:35 58° NNW 00:21:35 58° NNW
NOSS 2-1 (C) 4.3 00:20:36 10° NNW 00:24:13 46° NE 00:24:43 44° ENE
Cosmos 676 Rocket 4.0 00:24:48 66° WSW 00:25:22 73° WNW 00:30:38 10° NNE
Aureole 3 4.1 00:25:37 67° S 00:26:27 84° E 00:32:51 10° N
NOSS 2-1 (E) 4.3 00:24:17 10° NNW 00:27:55 45° NE 00:28:38 41° E
NOSS 3-1 (C) 4.3 00:21:03 10° NW 00:28:28 55° WSW 00:30:46 44° SSW
Cosmos 1844 Rocket 4.1 00:36:23 22° W 00:38:55 32° WNW 00:43:58 10° N
Cosmos 1782 Rocket 3.8 00:36:55 10° NNW 00:40:56 64° WNW 00:40:56 64° WNW
USA 234 3.2 00:41:59 10° NE 00:48:32 87° NW 00:51:09 40° SW
USA 59 Rocket 0.1 00:50:46 10° NW 00:54:17 74° NW 00:54:17 74° NW
Cosmos 1606 4.2 00:54:12 10° N 00:55:43 26° N 00:55:43 26° N
Cosmos 304 Rocket 3.6 01:00:52 84° S 01:01:01 88° ESE 01:05:47 10° NNE
ATLAS 3B R/B 3.8 00:55:31 10° NNW 01:03:09 50° NE 01:10:27 10° ESE
H-2A R/B 2.7 01:06:39 55° NE 01:06:39 55° NE 01:09:49 10° N
Cosmos 841 Rocket 3.6 01:02:18 10° NNW 01:07:25 54° WSW 01:07:31 54° WSW
Cosmos 2242 Rocket 3.7 01:09:13 63° W 01:09:13 63° W 01:13:38 10° N
Cosmos 1850 Rocket 3.9 01:12:44 61° WSW 01:13:28 72° WNW 01:18:38 10° NNE
Cosmos 2279 Rocket 3.9 01:07:20 10° N 01:13:32 76° W 01:15:05 52° SSW
ATLAS 2AS CENTAUR R/B 3.3 01:12:28 27° WSW 01:16:15 51° NW 01:23:02 10° NNE
SeaSat 1 3.4 01:17:10 33° W 01:17:10 33° W 01:20:57 10° NW
H-2A R/B 4.1 01:14:06 10° NE 01:16:33 16° E 01:17:10 15° ESE
NOSS 3-1 (A) 4.3 01:09:28 10° NW 01:16:52 55° WSW 01:19:44 40° SSW
Cosmos 1869 4.0 01:15:04 10° N 01:18:35 41° ENE 01:18:35 41° ENE
IDEFIX/ARIANE 42P 3.6 01:15:56 10° NNE 01:20:44 36° E 01:22:10 30° SE
Cosmos 2221 Rocket 4.1 01:21:46 45° ESE 01:22:13 47° E 01:26:27 10° NNE
Cosmos 1833 Rocket 2.7 01:18:02 10° NNW 01:23:41 78° ENE 01:25:45 40° SE
Cosmos 2180 Rocket 4.4 01:23:30 10° N 01:29:40 80° W 01:31:33 47° S
NPP 4.4 01:31:05 10° NNE 01:36:13 43° E 01:38:05 32° SE
CZ-2C R/B 3.2 01:32:01 10° N 01:37:23 64° WNW 01:38:34 49° SW
Cosmos 1674 Rocket 3.3 01:38:17 74° WSW 01:38:32 78° W 01:42:52 10° N
Cosmos 332 Rocket 3.9 01:37:42 52° SSE 01:38:33 62° ESE 01:43:20 10° NNE
Sich 1 Rocket 3.8 01:34:11 10° N 01:38:37 64° E 01:39:37 49° SE
Cosmos 968 Rocket 4.3 01:37:59 34° W 01:39:19 40° WNW 01:44:14 10° N
Meteor 2-12 Rocket 4.5 01:43:30 44° SSW 01:45:28 70° W 01:51:38 10° N
Resurs 1-4 Rocket 3.5 01:47:12 10° NE 01:51:48 30° E 01:54:32 19° SE
SJ 16-02 3.7 01:52:05 11° WNW 01:53:30 12° WNW 01:55:23 10° NNW
Cosmos 2082 Rocket 3.8 01:48:38 10° N 01:53:48 34° ENE 01:58:56 10° ESE
Cosmos 2278 Rocket 2.2 01:52:55 45° S 01:54:45 80° ESE 02:00:26 10° NNE
Timation 2 Rocket 4.1 01:53:46 37° SW 01:56:00 60° WNW 02:01:55 10° NNE
CZ-2C R/B 3.0 01:56:00 41° WSW 01:56:47 44° W 02:01:49 10° NNW
Cosmos 1943 Rocket 2.1 01:59:08 43° S 02:00:58 80° ESE 02:06:30 10° NNE
Cosmos 2151 Rocket 3.8 01:57:12 10° NNW 02:01:28 49° W 02:01:53 47° WSW
Okean 2 Rocket 3.2 02:00:02 10° NNW 02:04:26 57° W 02:05:04 51° SW
CZ-2D R/B 3.2 02:01:12 10° NNE 02:06:12 38° E 02:09:13 21° SSE
ALOS 4.1 02:04:48 10° NE 02:08:25 23° E 02:11:20 13° SE
USA 229 DEB 4.0 02:03:35 10° NW 02:11:14 89° SW 02:19:29 10° SSE
USA 229 4.0 02:03:41 10° NW 02:11:20 90° ENE 02:19:34 10° SSE
Okean 1 Rocket 3.2 02:10:00 10° NNW 02:14:23 59° W 02:15:20 47° SW
Cosmos 1025 Rocket 3.3 02:13:48 44° WSW 02:14:30 50° W 02:18:40 10° N
USA 81 4.2 02:21:17 36° SW 02:23:10 56° W 02:28:21 10° N
Cosmos 1340 Rocket 4.0 02:23:57 10° NW 02:26:56 25° W 02:26:56 25° W
Cosmos 1092 Rocket 4.0 02:26:09 30° SSW 02:29:25 72° W 02:35:45 10° N
Cosmos 375 4.4 02:26:45 10° NW 02:30:43 48° WSW 02:31:15 45° SSW
Cosmos 1975 Rocket 3.2 02:29:18 32° S 02:31:20 74° E 02:35:46 10° NNE
Cosmos 1570 Rocket 4.3 02:26:26 10° NNW 02:31:47 69° ENE 02:37:04 10° SSE
Cosmos 2369 Rocket 4.3 02:27:58 10° SE 02:31:56 20° E 02:35:55 10° NE
Cosmos 292 Rocket 3.7 02:30:12 35° SSW 02:32:15 88° ESE 02:37:05 10° NNE
Meteor 2-1 Rocket 4.3 02:28:47 10° NNW 02:34:43 70° W 02:38:29 23° S
ADEOS II 2.7 02:31:47 10° NNE 02:36:52 50° E 02:40:39 18° S
Cosmos 158 Rocket 4.0 02:32:26 10° NNW 02:37:21 53° WSW 02:39:37 29° SSW
MOZ.5/SAFIR/RUBIN 5/SL-8 4.0 02:41:30 31° SSW 02:43:15 47° W 02:47:41 10° NNW
COSMOS 2441 4.4 02:42:44 10° N 02:47:33 68° WNW 02:50:10 27° SSW
Cosmos 1515 2.8 02:45:06 10° N 02:47:49 77° E 02:48:31 44° SSE
H-2A R/B 2.6 02:48:24 10° N 02:52:07 39° WNW 02:53:41 27° WSW
USA 281 4.2 02:47:21 10° NE 02:53:29 41° ESE 02:59:36 10° S
Timation 1 Rocket 4.3 02:47:45 10° NNW 02:53:49 87° WSW 02:59:48 10° SSE
ATLAS 3B R/B 3.3 02:46:38 10° NW 02:53:49 41° WSW 03:00:20 11° S
FENGYUN 3A 3.9 02:49:20 10° N 02:54:34 55° WNW 02:57:44 23° SW
IDEFIX/ARIANE 42P 3.8 02:55:37 10° N 03:00:03 29° WNW 03:02:52 18° WSW
Cosmos 1455 Rocket 3.6 02:56:23 10° NNW 03:00:26 39° W 03:02:21 25° SW
Cosmos 220 Rocket 3.8 02:56:49 10° NNW 03:00:59 87° WSW 03:05:10 10° SSE
Cosmos 1812 3.4 03:00:25 10° NW 03:03:05 25° W 03:03:23 25° W
Envisat 3.2 03:00:22 10° NNE 03:05:26 71° ESE 03:09:47 14° S
Cosmos 1833 Rocket 4.4 03:04:06 10° WNW 03:06:49 14° W 03:07:22 14° WSW
Atlas Centaur 2 4.0 03:04:30 18° SSW 03:08:54 29° SSE 03:15:33 10° ESE
Cosmos 2058 4.4 03:08:42 10° SSE 03:12:16 32° E 03:15:51 10° NNE
H-2A R/B 3.5 03:09:07 10° NNE 03:13:53 34° E 03:18:32 10° SSE
ATLAS 5 CENTAUR R/B 0.9 03:14:21 25° SW 03:15:53 57° NW 03:19:05 10° NNE
NOSS 3-3 (A) 3.8 03:12:28 17° SSW 03:16:23 67° ESE 03:22:17 10° NE
Cosmos 1666 2.8 03:17:28 17° NW 03:17:28 17° NW 03:18:13 10° NNW
SL-4 R/B 4.0 03:15:22 10° NW 03:18:45 27° NNE 03:21:59 10° E
Cosmos 2228 2.9 03:16:58 10° NNW 03:21:02 60° W 03:24:51 11° S
Cosmos 1536 Rocket 3.8 03:18:50 10° S 03:23:05 67° E 03:27:22 10° NNE
COSMOS 2406 3.2 03:23:00 10° NNW 03:28:45 72° WSW 03:34:27 10° SSE
Resurs 1-4 Rocket 3.0 03:26:50 10° N 03:31:32 34° WNW 03:35:34 13° SW
Cosmos 2082 Rocket 2.8 03:32:41 10° NW 03:37:51 36° WSW 03:42:59 10° S
Cosmos 2278 Rocket 4.1 03:35:49 10° W 03:39:30 17° NW 03:43:12 10° N
Cosmos 2098 Rocket 4.0 03:37:05 10° NW 03:39:45 20° W 03:41:27 14° SW
Cosmos 1777 Rocket 4.4 03:37:29 13° SW 03:42:02 51° WNW 03:47:09 10° N
Cosmos 1544 Rocket 3.9 03:40:21 10° NNW 03:44:25 43° W 03:48:28 10° SSW
H-2A R/B 3.5 03:41:24 10° NNE 03:45:19 70° ESE 03:49:13 10° S
Cosmos 1943 Rocket 4.1 03:41:54 10° W 03:45:22 17° NW 03:48:50 10° N
ALOS 3.1 03:41:20 10° N 03:45:27 35° WNW 03:49:26 11° SW
Cosmos 1656 Rocket 3.9 03:40:48 12° SW 03:45:58 58° WNW 03:51:31 10° NNE
CZ-2D R/B 3.3 03:41:26 10° N 03:45:59 29° WNW 03:50:28 10° WSW
SL-16 R/B 2.5 03:41:19 10° S 03:47:30 77° WSW 03:53:46 10° NNW
METEOR-M 4.2 03:42:59 10° N 03:48:20 77° WNW 03:53:38 10° SSW
Cosmos 1606 Rocket 4.2 03:45:37 10° N 03:49:51 58° E 03:54:04 10° SSE
Cosmos 724 4.5 03:46:04 10° SW 03:52:00 75° WNW 03:58:13 10° NNE
Cosmos 1354 Rocket 4.2 03:47:30 10° SSW 03:52:43 61° WNW 03:57:56 10° NNE
UNK 4.2 03:52:19 10° SSE 03:56:47 65° ENE 04:01:16 10° N
Cosmos 2285 Rocket 4.0 03:51:12 10° SSW 03:57:29 82° WNW 04:03:52 10° NNE
NOSS 3-3 (C) 3.8 03:53:30 10° SW 03:58:40 68° NW 04:04:45 10° NNE
CZ-2C R/B 2.9 03:54:57 10° NNE 03:59:31 57° E 04:04:10 10° S
Lacrosse 5 rocket 3.8 03:58:06 10° SSE 03:59:56 13° ESE 04:01:46 10° E
AQUA 4.4 03:56:33 10° N 04:00:57 41° WNW 04:05:19 10° SW
Cosmos 1892 Rocket 4.2 04:01:21 10° S 04:05:42 60° E 04:10:04 10° NNE
ARGOS 4.2 04:01:01 10° NNE 04:06:12 46° E 04:11:23 10° S
S3M 4.4 04:05:52 10° NNW 04:11:55 47° W 04:17:57 10° SSW
